QPF
0.00 0.00 0.01 0.01 0.02 0.02 0.03 0.03 0.03 0.02 0.02 0.02 0.03 0.02 0.02 0.03 0.02 0.02 0.02 0.02 0.03 0.03 0.03 0.05 0.05 0.04 0.03 0.03 0.04 0.04 0.03 0.04 0.05 0.04 0.03 0.03 0.03 0.03
0.00 0.01 0.01 0.01 0.01 0.01 0.02 0.02 0.02 0.02 0.01 0.02 0.02 0.02 0.03 0.04 0.05 0.03 0.03 0.03 0.05 0.05 0.04 0.05 0.05 0.03 0.03 0.03 0.03 0.03 0.03 0.04 0.06 0.07 0.06 0.05 0.04 0.03
0.00 0.00 0.00 0.00 0.01 0.01 0.01 0.01 0.02 0.02 0.02 0.02 0.02 0.02 0.03 0.05 0.05 0.04 0.04 0.03 0.05 0.06 0.06 0.07 0.07 0.05 0.03 0.03 0.03 0.02 0.02 0.03 0.04 0.06 0.06 0.06 0.07 0.06
0.01 0.01 0.00 0.01 0.01 0.01 0.02 0.01 0.01 0.01 0.02 0.01 0.01 0.02 0.02 0.04 0.05 0.04 0.04 0.04 0.04 0.04 0.05 0.06 0.06 0.05 0.04 0.03 0.02 0.02 0.02 0.02 0.03 0.04 0.05 0.05 0.05 0.05
0.01 0.01 0.01 0.01 0.01 0.01 0.01 0.01 0.01 0.02 0.02 0.02 0.01 0.01 0.02 0.03 0.04 0.04 0.04 0.04 0.04 0.04 0.04 0.05 0.06 0.05 0.05 0.04 0.03 0.02 0.01 0.02 0.02 0.02 0.04 0.05 0.05 0.04
0.01 0.01 0.01 0.01 0.01 0.01 0.01 0.01 0.01 0.02 0.02 0.02 0.02 0.01 0.01 0.01 0.02 0.04 0.05 0.05 0.04 0.04 0.04 0.05 0.06 0.06 0.07 0.06 0.05 0.04 0.03 0.03 0.03 0.02 0.02 0.04 0.06 0.06
0.01 0.01 0.01 0.02 0.02 0.02 0.02 0.02 0.02 0.02 0.02 0.02 0.02 0.01 0.01 0.01 0.01 0.02 0.06 0.06 0.04 0.04 0.04 0.05 0.07 0.06 0.06 0.07 0.07 0.07 0.06 0.05 0.04 0.04 0.03 0.03 0.04 0.06
0.01 0.01 0.01 0.02 0.02 0.02 0.02 0.02 0.03 0.03 0.02 0.03 0.03 0.03 0.02 0.02 0.02 0.02 0.03 0.04 0.02 0.02 0.03 0.04 0.06 0.08 0.07 0.06 0.05 0.05 0.06 0.06 0.05 0.04 0.04 0.04 0.03 0.04
0.01 0.01 0.01 0.01 0.01 0.01 0.02 0.02 0.02 0.02 0.02 0.02 0.02 0.03 0.04 0.04 0.03 0.02 0.02 0.02 0.01 0.02 0.02 0.04 0.05 0.06 0.07 0.07 0.06 0.05 0.05 0.05 0.05 0.05 0.05 0.05 0.04 0.04
0.01 0.01 0.01 0.01 0.01 0.01 0.01 0.01 0.01 0.01 0.01 0.01 0.02 0.02 0.04 0.06 0.05 0.03 0.02 0.02 0.02 0.01 0.02 0.03 0.04 0.05 0.05 0.06 0.06 0.05 0.04 0.05 0.05 0.05 0.04 0.05 0.05 0.05
0.02 0.01 0.01 0.01 0.01 0.02 0.01 0.01 0.01 0.01 0.01 0.01 0.02 0.03 0.04 0.05 0.07 0.05 0.04 0.04 0.04 0.03 0.02 0.03 0.03 0.03 0.04 0.04 0.05 0.06 0.05 0.04 0.04 0.05 0.04 0.04 0.04 0.04
0.03 0.02 0.01 0.01 0.01 0.02 0.01 0.01 0.01 0.01 0.02 0.03 0.03 0.03 0.04 0.06 0.08 0.07 0.05 0.05 0.06 0.05 0.03 0.03 0.04 0.04 0.03 0.03 0.03 0.03 0.04 0.04 0.04 0.03 0.04 0.04 0.04 0.04
0.04 0.03 0.02 0.02 0.02 0.02 0.01 0.01 0.01 0.01 0.01 0.02 0.03 0.04 0.04 0.04 0.06 0.08 0.07 0.05 0.04 0.03 0.03 0.03 0.04 0.05 0.04 0.03 0.02 0.02 0.02 0.02 0.02 0.03 0.03 0.03 0.03 0.03
0.04 0.03 0.02 0.02 0.02 0.02 0.01 0.01 0.02 0.01 0.01 0.01 0.02 0.03 0.04 0.04 0.03 0.04 0.04 0.04 0.03 0.02 0.02 0.02 0.03 0.05 0.06 0.03 0.02 0.02 0.02 0.02 0.02 0.03 0.03 0.03 0.03 0.02
0.02 0.03 0.02 0.02 0.02 0.02 0.01 0.01 0.01 0.01 0.01 0.02 0.03 0.03 0.03 0.04 0.03 0.03 0.03 0.03 0.03 0.02 0.01 0.03 0.04 0.06 0.07 0.05 0.03 0.02 0.02 0.02 0.01 0.01 0.02 0.02 0.02 0.02
0.01 0.02 0.02 0.02 0.02 0.02 0.02 0.01 0.01 0.01 0.01 0.02 0.03 0.04 0.04 0.04 0.05 0.05 0.04 0.04 0.03 0.02 0.01 0.03 0.04 0.05 0.06 0.06 0.04 0.02 0.02 0.02 0.02 0.02 0.02 0.02 0.02 0.02
0.01 0.02 0.02 0.02 0.03 0.04 0.03 0.03 0.02 0.01 0.02 0.02 0.02 0.03 0.03 0.03 0.04 0.05 0.06 0.05 0.03 0.02 0.01 0.02 0.03 0.04 0.05 0.05 0.05 0.04 0.02 0.02 0.03 0.03 0.03 0.03 0.03 0.04
0.01 0.02 0.03 0.03 0.04 0.05 0.05 0.04 0.02 0.01 0.02 0.03 0.03 0.03 0.02 0.02 0.02 0.03 0.05 0.05 0.05 0.03 0.02 0.02 0.02 0.03 0.04 0.04 0.04 0.04 0.04 0.03 0.03 0.03 0.04 0.05 0.05 0.05
0.02 0.02 0.03 0.04 0.04 0.04 0.04 0.03 0.03 0.03 0.02 0.02 0.02 0.03 0.03 0.03 0.02 0.02 0.04 0.05 0.05 0.05 0.04 0.04 0.04 0.05 0.05 0.05 0.04 0.03 0.04 0.05 0.04 0.03 0.03 0.04 0.04 0.04
0.01 0.02 0.02 0.03 0.05 0.04 0.03 0.03 0.03 0.03 0.04 0.04 0.03 0.03 0.03 0.03 0.03 0.02 0.02 0.04 0.04 0.05 0.05 0.05 0.05 0.06 0.07 0.08 0.08 0.05 0.04 0.05 0.06 0.05 0.04 0.04 0.04 0.05
0.01 0.01 0.01 0.01 0.02 0.03 0.02 0.03 0.03 0.03 0.04 0.04 0.04 0.04 0.03 0.02 0.02 0.02 0.02 0.02 0.04 0.04 0.05 0.05 0.05 0.05 0.06 0.08 0.09 0.07 0.05 0.06 0.07 0.07 0.07 0.08 0.07 0.07
0.00 0.01 0.01 0.01 0.01 0.02 0.01 0.02 0.02 0.02 0.02 0.02 0.03 0.03 0.03 0.03 0.03 0.03 0.02 0.02 0.02 0.03 0.04 0.04 0.04 0.06 0.07 0.09 0.09 0.08 0.07 0.06 0.07 0.07 0.08 0.08 0.09 0.09
0.01 0.01 0.01 0.01 0.01 0.01 0.01 0.01 0.02 0.02 0.02 0.02 0.02 0.02 0.02 0.02 0.02 0.02 0.02 0.02 0.02 0.02 0.03 0.03 0.04 0.05 0.05 0.06 0.07 0.07 0.07 0.06 0.06 0.06 0.05 0.05 0.06 0.07
MSLP
1017.80 1018.04 1018.30 1018.57 1018.82 1019.06 1019.26 1019.41 1019.50 1019.50 1019.41 1019.20 1018.87 1018.42 1017.87 1017.26 1016.64 1016.08 1015.64 1015.38 1015.34 1015.54 1015.95 1016.56 1017.29 1018.10 1018.92 1019.70 1020.42 1021.07 1021.66 1022.21 1022.73 1023.25 1023.78 1024.32 1024.86 1025.39
1017.57 1017.81 1018.07 1018.33 1018.60 1018.86 1019.11 1019.33 1019.51 1019.63 1019.68 1019.63 1019.48 1019.21 1018.85 1018.41 1017.95 1017.52 1017.17 1016.96 1016.91 1017.06 1017.38 1017.86 1018.45 1019.10 1019.76 1020.40 1020.99 1021.54 1022.04 1022.51 1022.98 1023.45 1023.93 1024.42 1024.91 1025.39
1017.35 1017.58 1017.83 1018.08 1018.35 1018.63 1018.91 1019.19 1019.45 1019.69 1019.87 1019.99 1020.01 1019.94 1019.78 1019.54 1019.25 1018.97 1018.73 1018.58 1018.54 1018.65 1018.89 1019.24 1019.68 1020.16 1020.67 1021.16 1021.63 1022.07 1022.48 1022.89 1023.29 1023.71 1024.14 1024.58 1025.02 1025.43
1017.09 1017.33 1017.57 1017.82 1018.09 1018.37 1018.68 1019.01 1019.34 1019.67 1019.97 1020.22 1020.40 1020.50 1020.52 1020.47 1020.36 1020.22 1020.10 1020.02 1020.01 1020.09 1020.25 1020.50 1020.81 1021.15 1021.51 1021.87 1022.23 1022.57 1022.91 1023.25 1023.61 1023.98 1024.37 1024.76 1025.13 1025.48
1016.78 1017.03 1017.27 1017.53 1017.80 1018.10 1018.43 1018.78 1019.16 1019.55 1019.93 1020.29 1020.59 1020.83 1020.99 1021.09 1021.13 1021.12 1021.11 1021.10 1021.13 1021.20 1021.32 1021.49 1021.69 1021.92 1022.17 1022.42 1022.68 1022.94 1023.22 1023.52 1023.84 1024.18 1024.53 1024.87 1025.20 1025.49
1016.40 1016.67 1016.93 1017.20 1017.48 1017.80 1018.14 1018.52 1018.92 1019.35 1019.77 1020.18 1020.55 1020.87 1021.14 1021.34 1021.49 1021.60 1021.67 1021.74 1021.81 1021.89 1021.99 1022.11 1022.24 1022.39 1022.55 1022.72 1022.90 1023.11 1023.34 1023.61 1023.90 1024.22 1024.54 1024.86 1025.14 1025.39
1015.94 1016.23 1016.52 1016.81 1017.12 1017.46 1017.82 1018.21 1018.62 1019.05 1019.47 1019.89 1020.29 1020.65 1020.96 1021.23 1021.46 1021.64 1021.80 1021.93 1022.05 1022.15 1022.25 1022.35 1022.44 1022.53 1022.63 1022.74 1022.87 1023.03 1023.23 1023.47 1023.75 1024.05 1024.36 1024.66 1024.93 1025.14
1015.42 1015.73 1016.04 1016.36 1016.70 1017.06 1017.44 1017.84 1018.24 1018.66 1019.07 1019.46 1019.85 1020.20 1020.53 1020.83 1021.10 1021.34 1021.56 1021.76 1021.92 1022.07 1022.18 1022.28 1022.35 1022.40 1022.45 1022.51 1022.60 1022.72 1022.89 1023.11 1023.38 1023.67 1023.98 1024.27 1024.53 1024.73
1014.85 1015.17 1015.50 1015.85 1016.22 1016.60 1017.00 1017.40 1017.80 1018.19 1018.56 1018.93 1019.28 1019.61 1019.94 1020.25 1020.55 1020.84 1021.11 1021.36 1021.58 1021.77 1021.91 1022.01 1022.07 1022.10 1022.12 1022.13 1022.18 1022.26 1022.39 1022.59 1022.83 1023.11 1023.41 1023.70 1023.96 1024.16
1014.27 1014.57 1014.91 1015.27 1015.67 1016.07 1016.48 1016.89 1017.28 1017.65 1017.99 1018.33 1018.64 1018.96 1019.27 1019.59 1019.92 1020.25 1020.57 1020.88 1021.16 1021.39 1021.56 1021.68 1021.73 1021.74 1021.72 1021.70 1021.69 1021.73 1021.82 1021.97 1022.19 1022.45 1022.73 1023.02 1023.27 1023.47
1013.70 1013.97 1014.29 1014.66 1015.06 1015.48 1015.90 1016.31 1016.69 1017.04 1017.37 1017.68 1017.98 1018.29 1018.61 1018.95 1019.31 1019.69 1020.06 1020.43 1020.76 1021.04 1021.24 1021.37 1021.43 1021.42 1021.37 1021.30 1021.24 1021.22 1021.26 1021.36 1021.53 1021.75 1022.01 1022.27 1022.51 1022.70
1013.19 1013.40 1013.69 1014.03 1014.43 1014.84 1015.26 1015.67 1016.04 1016.39 1016.71 1017.02 1017.32 1017.64 1017.98 1018.35 1018.75 1019.18 1019.62 1020.04 1020.42 1020.74 1020.98 1021.12 1021.18 1021.15 1021.07 1020.96 1020.85 1020.78 1020.76 1020.80 1020.92 1021.09 1021.30 1021.53 1021.74 1021.90
1012.76 1012.90 1013.14 1013.44 1013.81 1014.20 1014.60 1014.99 1015.36 1015.71 1016.03 1016.34 1016.66 1017.00 1017.37 1017.78 1018.24 1018.72 1019.21 1019.68 1020.11 1020.46 1020.73 1020.89 1020.94 1020.91 1020.81 1020.67 1020.53 1020.40 1020.33 1020.32 1020.37 1020.48 1020.63 1020.80 1020.95 1021.08
1012.46 1012.53 1012.69 1012.94 1013.25 1013.60 1013.97 1014.33 1014.68 1015.01 1015.33 1015.65 1015.98 1016.34 1016.75 1017.20 1017.70 1018.22 1018.75 1019.26 1019.72 1020.10 1020.39 1020.57 1020.64 1020.61 1020.51 1020.36 1020.19 1020.04 1019.93 1019.86 1019.86 1019.90 1019.98 1020.08 1020.17 1020.23
1012.32 1012.31 1012.41 1012.59 1012.83 1013.11 1013.42 1013.73 1014.04 1014.34 1014.65 1014.96 1015.30 1015.67 1016.09 1016.56 1017.07 1017.62 1018.16 1018.69 1019.16 1019.55 1019.86 1020.05 1020.14 1020.14 1020.05 1019.92 1019.76 1019.61 1019.48 1019.38 1019.33 1019.31 1019.32 1019.34 1019.35 1019.35
1012.37 1012.30 1012.32 1012.42 1012.58 1012.79 1013.02 1013.26 1013.50 1013.75 1014.01 1014.30 1014.61 1014.97 1015.38 1015.84 1016.34 1016.86 1017.38 1017.89 1018.35 1018.74 1019.05 1019.26 1019.38 1019.41 1019.37 1019.27 1019.15 1019.03 1018.91 1018.80 1018.72 1018.66 1018.60 1018.55 1018.49 1018.41
1012.63 1012.51 1012.47 1012.49 1012.56 1012.66 1012.80 1012.95 1013.11 1013.29 1013.48 1013.71 1013.97 1014.28 1014.64 1015.04 1015.48 1015.95 1016.42 1016.87 1017.29 1017.65 1017.94 1018.16 1018.31 1018.38 1018.40 1018.37 1018.31 1018.24 1018.16 1018.08 1017.99 1017.90 1017.80 1017.68 1017.56 1017.41
1013.08 1012.93 1012.83 1012.78 1012.76 1012.77 1012.80 1012.85 1012.91 1013.00 1013.10 1013.25 1013.43 1013.66 1013.93 1014.24 1014.58 1014.95 1015.33 1015.69 1016.03 1016.34 1016.60 1016.81 1016.97 1017.09 1017.17 1017.22 1017.24 1017.24 1017.22 1017.18 1017.11 1017.02 1016.90 1016.75 1016.57 1016.37
1013.68 1013.51 1013.37 1013.25 1013.15 1013.07 1013.01 1012.95 1012.92 1012.90 1012.91 1012.96 1013.04 1013.16 1013.32 1013.51 1013.74 1013.98 1014.22 1014.47 1014.71 1014.93 1015.14 1015.32 1015.48 1015.63 1015.76 1015.88 1015.98 1016.06 1016.11 1016.13 1016.11 1016.04 1015.92 1015.76 1015.56 1015.33
1014.35 1014.17 1014.00 1013.83 1013.67 1013.52 1013.37 1013.23 1013.10 1013.00 1012.92 1012.87 1012.84 1012.85 1012.89 1012.95 1013.04 1013.13 1013.24 1013.35 1013.46 1013.58 1013.70 1013.83 1013.98 1014.13 1014.29 1014.46 1014.62 1014.77 1014.89 1014.97 1015.00 1014.98 1014.89 1014.74 1014.55 1014.33
1015.00 1014.82 1014.63 1014.44 1014.24 1014.03 1013.82 1013.62 1013.43 1013.25 1013.10 1012.96 1012.85 1012.76 1012.68 1012.62 1012.56 1012.51 1012.47 1012.44 1012.42 1012.42 1012.44 1012.49 1012.57 1012.69 1012.85 1013.03 1013.22 1013.42 1013.59 1013.74 1013.83 1013.86 1013.83 1013.73 1013.58 1013.38
1015.52 1015.36 1015.17 1014.97 1014.75 1014.52 1014.28 1014.05 1013.82 1013.60 1013.40 1013.20 1013.02 1012.85 1012.68 1012.51 1012.34 1012.16 1011.98 1011.81 1011.65 1011.52 1011.42 1011.36 1011.36 1011.41 1011.52 1011.67 1011.86 1012.07 1012.27 1012.46 1012.60 1012.70 1012.73 1012.71 1012.62 1012.49
1015.87 1015.72 1015.55 1015.35 1015.14 1014.91 1014.67 1014.43 1014.19 1013.96 1013.74 1013.52 1013.30 1013.07 1012.84 1012.59 1012.32 1012.04 1011.75 1011.45 1011.17 1010.90 1010.67 1010.49 1010.37 1010.32 1010.34 1010.42 1010.55 1010.73 1010.93 1011.13 1011.32 1011.48 1011.59 1011.65 1011.65 1011.61
Thickness
5630 5629 5627 5626 5626 5625 5625 5624 5622 5620 5621 5623 5625 5628 5629 5630 5631 5633 5635 5636 5637 5638 5640 5640 5641 5641 5641 5642 5642 5642 5642 5642 5642 5642 5642 5641 5642 5642
5625 5624 5622 5622 5621 5621 5620 5620 5619 5617 5615 5617 5618 5620 5622 5623 5624 5626 5627 5628 5630 5631 5632 5633 5634 5634 5635 5636 5636 5636 5636 5636 5636 5636 5636 5636 5636 5637
5619 5618 5617 5617 5616 5616 5615 5614 5613 5612 5610 5611 5612 5613 5614 5615 5617 5618 5619 5621 5622 5624 5625 5626 5627 5627 5628 5629 5630 5630 5630 5630 5630 5630 5630 5631 5631 5632
5613 5612 5612 5612 5611 5610 5609 5608 5608 5607 5606 5605 5605 5606 5607 5608 5609 5611 5612 5614 5615 5616 5618 5619 5620 5621 5622 5623 5623 5624 5624 5624 5625 5625 5625 5625 5626 5626
5607 5606 5606 5605 5604 5603 5603 5602 5602 5602 5601 5600 5599 5599 5600 5601 5602 5603 5605 5606 5608 5609 5610 5612 5614 5615 5616 5616 5617 5618 5618 5619 5619 5619 5619 5619 5620 5620
5601 5600 5600 5599 5598 5597 5597 5596 5596 5595 5594 5593 5593 5592 5593 5593 5594 5595 5596 5598 5600 5602 5603 5605 5607 5608 5609 5610 5611 5611 5612 5612 5613 5613 5614 5614 5614 5614
5594 5593 5593 5593 5593 5593 5592 5590 5590 5588 5587 5586 5585 5585 5586 5586 5587 5588 5589 5590 5592 5594 5596 5598 5600 5601 5602 5603 5604 5605 5605 5605 5606 5607 5608 5608 5608 5608
5586 5586 5586 5586 5586 5586 5586 5586 5585 5583 5580 5579 5579 5579 5580 5581 5581 5582 5581 5583 5584 5587 5588 5590 5592 5593 5595 5596 5597 5598 5599 5599 5600 5601 5601 5602 5602 5603
5580 5579 5580 5580 5579 5578 5578 5578 5577 5578 5578 5576 5574 5575 5575 5576 5575 5575 5575 5576 5578 5580 5580 5582 5584 5586 5588 5590 5591 5592 5593 5593 5594 5594 5594 5595 5595 5596
5574 5573 5572 5572 5572 5571 5570 5569 5568 5569 5569 5569 5570 5571 5571 5571 5570 5570 5570 5569 5570 5572 5573 5574 5577 5579 5582 5583 5584 5585 5587 5587 5587 5587 5588 5588 5588 5588
5566 5566 5566 5565 5566 5565 5562 5560 5560 5560 5561 5561 5563 5564 5564 5565 5564 5562 5562 5562 5563 5564 5565 5567 5569 5571 5573 5576 5578 5579 5580 5580 5580 5580 5581 5581 5581 5581
5558 5558 5559 5559 5559 5558 5555 5553 5552 5552 5552 5553 5553 5555 5556 5557 5557 5557 5557 5556 5556 5558 5559 5559 5561 5562 5565 5569 5571 5572 5572 5573 5574 5574 5574 5574 5573 5572
5549 5549 5550 5551 5551 5550 5549 5547 5547 5546 5544 5544 5544 5545 5547 5548 5549 5550 5551 5551 5551 5553 5555 5554 5554 5555 5556 5560 5563 5564 5565 5566 5567 5567 5567 5567 5567 5566
5541 5541 5542 5543 5542 5542 5541 5540 5539 5538 5536 5536 5536 5537 5538 5539 5541 5543 5544 5545 5546 5548 5548 5548 5549 5549 5550 5552 5555 5557 5558 5558 5559 5560 5560 5561 5561 5561
5533 5534 5534 5534 5533 5532 5532 5532 5530 5528 5528 5527 5528 5529 5531 5532 5534 5535 5536 5538 5539 5540 5541 5542 5543 5544 5544 5545 5547 5549 5550 5551 5552 5553 5554 5554 5555 5555
5524 5525 5525 5524 5523 5523 5522 5521 5521 5521 5521 5520 5521 5522 5523 5524 5525 5527 5528 5529 5530 5531 5533 5535 5536 5537 5538 5539 5540 5542 5543 5544 5546 5546 5547 5548 5548 5549
5516 5515 5514 5513 5513 5513 5513 5512 5512 5512 5512 5512 5513 5513 5515 5516 5517 5519 5520 5521 5521 5523 5525 5526 5528 5530 5532 5532 5533 5535 5536 5537 5539 5539 5539 5541 5543 5544
5507 5505 5504 5504 5504 5504 5504 5504 5504 5504 5504 5504 5505 5506 5507 5508 5509 5510 5511 5512 5513 5515 5517 5518 5519 5522 5524 5525 5527 5528 5529 5531 5532 5532 5532 5533 5537 5538
5497 5496 5495 5495 5495 5496 5496 5496 5496 5497 5497 5497 5498 5498 5499 5500 5501 5502 5503 5504 5506 5508 5509 5510 5511 5513 5516 5519 5521 5521 5522 5523 5524 5525 5526 5527 5530 5532
5487 5487 5486 5487 5487 5488 5488 5488 5488 5489 5489 5490 5490 5491 5491 5492 5493 5493 5494 5496 5497 5499 5501 5502 5503 5505 5508 5510 5512 5514 5516 5516 5517 5519 5519 5520 5522 5523
5479 5479 5479 5479 5479 5480 5481 5481 5481 5481 5482 5482 5483 5484 5484 5485 5485 5486 5486 5487 5489 5491 5493 5495 5497 5498 5500 5501 5504 5507 5508 5510 5511 5512 5513 5513 5515 5516
5472 5472 5472 5472 5473 5473 5473 5474 5474 5474 5474 5475 5475 5476 5477 5477 5478 5478 5478 5480 5481 5483 5485 5487 5489 5490 5492 5494 5498 5500 5502 5503 5504 5505 5507 5509 5509 5511
5465 5465 5466 5466 5467 5467 5467 5467 5467 5467 5468 5468 5468 5469 5470 5470 5470 5471 5471 5472 5474 5475 5477 5479 5480 5482 5484 5487 5489 5492 5495 5496 5497 5498 5500 5502 5503 5505